SCP
0 0 0 0 0 0 0 0 0 0 0 0 0 0 0 0 0 0 0 0 0 0 0 0 0 0 0 0 0 0 0 0 0 0 0 0 0 0 0 0 0 0 0
0 0 0 0 0 0 0 0 0 0 0 0 0 0 0 0 0 0 0 0 0 0 0 0 0 0 0 0 0 0 0 0 0 0 0 0 0 0 0 0 0 0 0
0 0 0 0 0 0 0 0 0 0 0 0 0 0 0 0 0 0 0 0 0 0 0 0 0 0 0 0 0 0 0 0 0 0 0 0 0 0 0 0 0 0 0
0 0 0 0 0 0 0 0 0 0 0 0 0 0 0 0 0 0 0 0 0 0 0 0 0 0 0 0 0 0 0 0 0 0 0 0 0 0 0 0 0 0 0
0 0 0 0 0 0 0 0 0 0 0 0 0 0 0 0 0 0 0 0 0 0 0 0 0 0 0 0 0 0 0 0 0 0 0 0 0 0 0 0 0 0 0
0 0 0 0 0 0 0 0 0 0 0 0 0 0 0 0 0 0 0 0 0 0 0 0 0 0 0 0 0 0 0 0 0 0 0 0 0 0 0 0 0 0 0
0 0 0 0 0 0 0 0 0 0 0 0 0 0 0 0 0 0 0 0 0 0 0 0 0 0 0 0 0 0 0 0 0 0 0 0 0 0 0 0 0 0 0
0 0 0 0 0 0 0 0 0 0 0 0 0 0 0 0 0 0 0 0 0 0 0 0 0 0 0 0 0 0 0 0 0 0 0 0 0 0 0 0 0 0 0
0 0 0 0 0 0 0 0 0 0 0 0 0 0 0 0 0 0 0 0 0 0 0 0 0 0 0 0 0 0 0 0 0 0 0 0 0 0 0 0 0 0 0
0 0 0 0 0 0 0 0 0 0 0 0 0 0 0 0 0 0 0 0 0 0 0 0 0 0 0 0 0 0 0 0 0 0 0 0 0 0 0 0 0 0 0
0 0 0 0 0 0 0 0 0 0 0 0 0 0 0 0 0 0 0 0 0 0 0 0 0 0 0 0 0 0 0 0 0 0 0 0 0 0 0 0 0 0 0
0 0 0 0 0 0 0 0 0 0 0 0 0 0 0 0 0 0 0 0 0 0 0 0 0 0 0 0 0 0 0 0 0 0 0 0 0 0 0 0 0 0 0
0 0 0 0 0 0 0 0 0 0 0 0 0 0 0 0 0 0 0 0 0 0 0 0 0 0 0 0 0 0 0 0 0 0 0 0 0 0 0 0 0 0 0
0 0 0 0 0 0 0 0 0 0 0 0 0 0 0 0 0 0 0 0 0 0 0 0 0 0 0 0 0 0 0 0 0 0 0 0 0 0 0 0 0 0 0
0 0 0 0 0 0 0 0 0 0 0 0 0 0 0 0 0 0 0 0 0 0 0 0 0 0 0 0 0 0 0 0 0 0 0 0 0 0 0 0 0 0 0
0 0 0 0 0 0 0 0 0 0 0 0 0 0 0 0 0 0 0 0 0 0 0 0 0 0 0 0 0 0 0 0 0 0 0 0 0 0 0 0 0 0 0
0 0 0 0 0 0 0 0 0 0 0 0 0 0 0 0 0 0 0 0 0 0 0 0 0 0 0 0 0 0 0 0 0 0 0 0 0 0 0 0 0 0 0
0 0 0 0 0 0 0 0 0 0 0 0 0 0 0 0 0 0 0 0 0 0 0 0 0 0 0 0 0 0 0 0 0 0 0 0 0 0 0 0 0 0 0
-0 0 0 0 0 0 0 0 0 0 0 0 0 0 0 0 0 0 0 0 0 0 0 0 0 0 0 0 0 0 0 0 0 0 0 0 0 0 0 0 0 0 0
0 0 0 0 0 0 0 0 0 0 0 0 0 0 0 0 0 0 0 0 0 0 0 0 0 0 0 0 0 0 0 0 0 0 0 0 0 0 0 0 0 0 0
0 0 0 0 -0 0 0 0 0 0 0 0 0 0 0 0 0 0 0 0 0 0 0 0 0 0 0 0 0 0 0 0 0 0 0 0 0 0 0 0 0 0 0
0 0 0 0 0 0 0 0 0 0 0 0 0 0 0 0 0 0 0 0 0 0 0 0 0 0 0 0 0 0 0 0 0 0 0 0 0 0 0 0 0 0 0
0 0 0 0 0 0 0 0 0 0 0 0 0 0 0 0 0 0 0 0 0 0 0 0 0 0 0 0 0 0 0 0 0 0 0 0 0 0 0 0 0 0 0
-0 -0 0 -0 0 0 0 0 0 0 0 0 0 0 0 0 0 0 0 0 0 0 0 0 0 0 0 0 0 0 0 0 0 0 0 0 0 0 0 0 0 0 0
-0 -0 -0 -0 0 0 0 0 0 0 0 0 0 0 0 0 0 0 0 0 0 0 0 0 0 0 0 0 0 0 0 0 0 0 0 0 0 0 0 0 0 0 0
-0 -0 -0 -0 -0 0 0 0 0 0 0 0 0 0 0 0 0 0 0 0 0 0 0 0 0 0 0 0 0 0 0 0 0 0 0 0 0 0 0 0 0 0 0
Wind_Speed_500mb
43 39 38 38 39 40 41 39 39 38 39 39 40 40 40 40 40 39 37 35 33 32 31 27 32 30 28 26 26 27 25 25 25 25 23 23 21 22 19 18 16 15 14
49 48 44 41 42 43 42 43 43 42 44 46 48 48 47 45 45 45 44 41 40 39 38 36 31 36 35 33 32 32 31 30 28 30 28 27 25 25 24 23 21 19 19
46 50 51 47 42 41 44 48 49 50 51 51 56 54 53 51 51 50 49 48 46 45 46 45 42 37 38 38 38 37 36 36 34 34 34 31 30 28 28 27 25 24 24
42 46 53 54 49 47 47 51 53 55 56 56 57 58 59 58 57 57 55 54 54 52 50 51 52 48 44 42 43 41 40 40 39 40 38 39 35 34 33 33 28 29 28
45 46 52 56 57 56 58 56 58 59 61 60 60 61 62 63 63 63 63 61 60 60 58 54 54 55 53 51 48 47 47 44 43 44 44 43 43 40 37 37 39 36 36
51 46 50 59 61 62 64 65 64 65 66 65 64 66 68 67 68 69 71 69 70 67 66 64 58 56 58 58 57 55 50 50 49 50 48 50 49 48 47 44 46 46 44
61 51 48 57 72 72 68 67 67 70 72 71 67 73 76 76 76 76 73 75 75 74 72 73 68 65 59 61 64 62 61 56 56 55 53 57 56 55 55 55 54 54 52
66 51 59 84 76 81 76 77 76 75 72 72 75 71 69 73 76 69 61 59 58 61 71 76 74 72 68 65 65 66 66 64 63 62 61 61 61 62 61 63 64 64 63
60 51 56 64 76 76 68 68 73 79 81 77 70 68 26 31 44 51 42 39 48 55 60 55 58 65 68 70 69 68 69 70 70 69 67 67 68 69 68 68 71 76 76
58 59 54 57 70 77 85 78 74 77 70 80 82 80 78 76 59 56 58 49 45 54 59 57 57 58 57 60 61 66 67 68 71 72 71 72 71 71 72 73 75 74 80
58 58 60 59 62 65 69 73 68 71 72 79 79 83 88 81 79 83 71 70 72 77 72 74 67 69 66 65 68 64 64 68 70 72 74 74 74 74 74 74 76 76 72
53 53 56 59 61 64 66 71 68 66 74 79 73 75 82 72 68 72 82 94 92 95 80 86 76 72 67 67 65 63 68 67 71 69 72 76 77 76 73 76 82 80 79
40 44 49 54 59 61 63 62 67 68 69 71 78 80 78 82 80 86 87 90 84 84 92 94 92 87 76 70 67 61 57 57 68 69 74 74 75 75 77 81 84 80 81
43 43 45 49 56 58 64 62 66 70 73 78 77 73 79 86 79 78 90 84 78 73 81 94 84 81 74 62 58 58 61 55 56 55 57 67 69 74 80 79 78 76 76
45 49 49 49 49 54 58 62 67 71 71 73 78 79 82 79 84 84 82 81 87 71 73 63 78 84 78 70 69 61 61 55 55 57 58 64 67 73 75 76 64 73 54
47 48 50 52 52 49 51 56 63 66 71 76 78 77 78 79 85 88 89 89 90 96 94 80 85 82 78 80 70 65 69 64 61 67 67 71 73 73 68 58 55 50 56
52 54 54 54 55 55 51 48 55 62 68 71 75 79 86 78 80 90 92 91 94 99 104 97 94 84 83 78 73 73 72 70 68 69 72 69 76 74 55 54 56 56 54
58 59 59 58 57 56 54 53 53 48 58 69 70 74 81 79 91 86 87 97 97 96 104 100 89 91 77 71 71 69 70 71 74 70 73 60 51 48 49 54 55 51 52
69 68 66 64 63 62 61 57 60 64 67 67 65 67 75 76 81 75 85 84 92 94 94 99 89 79 87 73 75 79 69 74 76 79 51 43 46 51 54 53 52 52 48
67 69 70 71 68 67 64 61 62 68 74 77 78 73 70 63 75 76 83 89 82 90 93 99 90 85 83 81 68 71 80 71 72 44 48 51 56 55 54 54 50 45 44
64 68 71 73 75 73 68 69 69 68 71 78 82 82 83 80 74 64 73 78 73 77 89 84 74 73 71 74 77 76 72 66 61 49 51 50 56 50 53 49 47 43 40
69 71 72 74 77 78 77 74 74 74 72 74 80 83 85 82 82 84 78 78 62 72 75 65 65 75 70 68 79 68 58 53 66 70 56 57 60 53 53 48 48 46 42
77 76 76 78 80 81 84 81 70 72 76 76 76 78 82 83 82 80 82 84 84 81 76 74 78 81 80 72 68 75 68 64 69 63 56 57 59 59 55 54 49 44 43
81 82 83 81 82 84 83 80 74 73 78 78 75 74 77 78 78 80 86 87 84 83 81 79 80 78 71 71 62 55 55 61 59 58 56 50 51 58 57 52 47 42 46
82 82 80 79 82 86 81 77 72 75 81 83 78 73 70 72 68 65 68 74 71 68 61 72 73 73 73 59 50 50 53 57 61 60 57 53 56 56 55 51 49 46 47
79 78 79 78 76 81 83 76 69 76 84 84 81 78 68 65 62 59 62 62 69 67 56 62 61 65 57 59 59 50 51 64 70 58 61 63 59 53 41 52 50 47 50
Wind_Direction_500mb
263 264 268 268 264 260 260 260 260 260 261 261 262 264 265 267 270 270 271 271 272 272 269 263 259 264 262 259 263 265 259 252 254 248 247 243 233 226 240 239 243 236 251
268 265 269 271 266 265 266 265 266 267 266 264 263 263 265 264 267 270 270 270 269 271 269 268 258 260 264 266 262 258 260 251 247 253 245 244 240 230 237 238 241 240 243
277 270 270 272 273 273 274 271 270 270 270 266 266 266 266 267 268 270 271 270 270 269 268 264 265 258 255 262 264 265 264 259 250 244 252 243 244 239 240 241 242 245 243
273 277 274 275 276 276 278 277 275 275 274 271 272 271 270 271 271 270 270 270 270 270 269 265 262 262 260 252 256 258 262 266 265 252 244 252 247 244 241 242 245 247 244
271 273 277 278 279 277 276 277 277 275 276 274 275 275 274 273 273 272 271 271 271 271 271 268 261 260 261 261 257 252 255 259 261 263 255 248 250 250 249 245 246 248 245
275 274 282 279 278 276 275 274 275 277 277 278 277 276 274 273 270 270 269 270 269 270 270 269 263 261 262 263 263 260 252 254 256 257 258 256 252 253 253 252 247 245 247
275 274 281 286 282 276 278 278 276 274 274 274 274 276 277 276 274 272 272 272 273 272 271 268 266 264 264 264 264 263 262 253 251 252 253 256 257 257 256 259 256 254 253
279 274 270 261 287 288 283 279 276 272 274 274 271 271 276 283 282 284 279 277 278 275 273 271 269 268 268 267 266 265 264 262 258 250 250 251 255 258 261 266 267 261 251
288 270 276 257 280 286 290 295 292 282 274 275 274 264 258 268 286 290 285 276 278 278 281 278 274 268 269 269 268 264 261 259 259 259 253 252 251 254 260 263 265 266 262
289 287 280 270 264 269 273 284 294 297 293 278 271 271 268 270 270 286 281 280 276 275 276 274 269 275 275 272 271 268 263 260 259 258 259 259 258 258 259 260 264 262 262
288 292 291 286 281 278 276 275 277 273 279 281 276 273 272 272 268 263 275 278 280 282 282 284 275 276 273 271 271 269 269 267 260 259 258 259 260 259 259 261 263 262 262
290 290 291 290 288 287 286 286 285 280 277 274 274 273 269 264 264 263 265 276 280 283 283 283 278 286 287 284 277 275 272 265 257 258 257 257 258 259 259 260 261 261 261
309 297 288 284 286 285 285 286 285 284 279 278 277 277 274 274 273 269 267 267 265 273 281 282 281 283 282 282 282 282 279 277 266 258 256 256 257 256 258 257 257 259 261
319 318 309 298 285 283 286 284 282 283 285 282 279 278 279 275 272 272 269 265 263 264 272 278 282 283 285 283 283 280 277 275 260 266 260 255 253 252 253 255 256 259 265
319 314 311 308 302 291 282 284 285 283 281 282 282 282 277 277 273 270 270 269 263 262 266 265 273 283 284 286 282 279 273 264 264 263 257 255 250 248 253 255 260 260 255
326 323 318 312 306 299 292 283 281 282 283 280 279 278 279 280 277 273 269 268 265 262 261 265 269 277 281 280 278 276 273 268 258 261 255 256 255 251 257 257 258 253 245
330 326 322 320 315 307 299 290 285 283 282 283 281 275 274 280 280 272 266 271 264 262 261 266 270 275 274 275 277 274 270 269 266 264 263 257 258 258 251 255 252 250 246
327 325 324 322 318 314 304 292 286 285 290 286 284 284 281 280 272 275 274 266 261 264 260 263 267 270 274 276 274 275 271 270 267 269 265 264 255 247 246 252 251 249 244
322 321 321 320 319 317 313 306 291 279 275 275 282 286 284 282 278 279 274 277 271 267 253 261 268 264 269 280 279 273 278 272 270 263 250 244 251 251 259 251 247 248 236
318 318 317 317 317 315 313 309 301 291 284 277 275 275 275 285 285 280 276 277 274 273 267 265 265 265 266 267 265 262 277 272 259 240 246 255 255 250 256 250 249 240 233
324 321 319 318 317 315 313 309 304 298 293 287 282 278 273 270 269 279 276 272 273 271 267 254 261 265 263 265 277 277 272 270 250 239 245 248 245 251 245 246 239 229 222
328 324 322 319 316 314 313 309 304 301 296 292 288 284 280 277 267 264 268 270 275 277 280 281 274 269 268 269 280 270 265 265 247 240 244 240 247 245 243 235 226 222 230
332 329 326 323 319 316 315 313 308 302 298 294 292 290 285 280 276 268 264 263 266 268 269 271 277 276 271 277 278 274 276 262 256 242 239 240 244 240 233 226 224 230 235
335 332 329 326 320 318 317 317 316 307 300 296 295 294 292 287 280 277 272 269 266 265 264 265 270 273 276 267 268 269 271 259 244 237 231 238 239 232 226 222 230 234 241
338 334 332 329 324 320 322 323 321 310 303 299 298 297 295 292 290 289 284 271 270 268 271 268 266 266 266 265 258 255 252 238 234 235 235 236 231 222 218 225 231 238 235
343 344 341 340 336 330 329 327 320 308 302 300 297 295 294 294 291 282 278 278 269 269 272 270 272 265 256 261 259 248 256 244 238 238 231 226 221 213 215 225 223 220 219
Wind_Speed_850mb
43 39 38 38 39 40 41 39 39 38 39 39 40 40 40 40 40 39 37 35 33 32 31 27 32 30 28 26 26 27 25 25 25 25 23 23 21 22 19 18 16 15 14
49 48 44 41 42 43 42 43 43 42 44 46 48 48 47 45 45 45 44 41 40 39 38 36 31 36 35 33 32 32 31 30 28 30 28 27 25 25 24 23 21 19 19
46 50 51 47 42 41 44 48 49 50 51 51 56 54 53 51 51 50 49 48 46 45 46 45 42 37 38 38 38 37 36 36 34 34 34 31 30 28 28 27 25 24 24
42 46 53 54 49 47 47 51 53 55 56 56 57 58 59 58 57 57 55 54 54 52 50 51 52 48 44 42 43 41 40 40 39 40 38 39 35 34 33 33 28 29 28
45 46 52 56 57 56 58 56 58 59 61 60 60 61 62 63 63 63 63 61 60 60 58 54 54 55 53 51 48 47 47 44 43 44 44 43 43 40 37 37 39 36 36
51 46 50 59 61 62 64 65 64 65 66 65 64 66 68 67 68 69 71 69 70 67 66 64 58 56 58 58 57 55 50 50 49 50 48 50 49 48 47 44 46 46 44
61 51 48 57 72 72 68 67 67 70 72 71 67 73 76 76 76 76 73 75 75 74 72 73 68 65 59 61 64 62 61 56 56 55 53 57 56 55 55 55 54 54 52
66 51 59 84 76 81 76 77 76 75 72 72 75 71 69 73 76 69 61 59 58 61 71 76 74 72 68 65 65 66 66 64 63 62 61 61 61 62 61 63 64 64 63
60 51 56 64 76 76 68 68 73 79 81 77 70 68 26 31 44 51 42 39 48 55 60 55 58 65 68 70 69 68 69 70 70 69 67 67 68 69 68 68 71 76 76
58 59 54 57 70 77 85 78 74 77 70 80 82 80 78 76 59 56 58 49 45 54 59 57 57 58 57 60 61 66 67 68 71 72 71 72 71 71 72 73 75 74 80
58 58 60 59 62 65 69 73 68 71 72 79 79 83 88 81 79 83 71 70 72 77 72 74 67 69 66 65 68 64 64 68 70 72 74 74 74 74 74 74 76 76 72
53 53 56 59 61 64 66 71 68 66 74 79 73 75 82 72 68 72 82 94 92 95 80 86 76 72 67 67 65 63 68 67 71 69 72 76 77 76 73 76 82 80 79
40 44 49 54 59 61 63 62 67 68 69 71 78 80 78 82 80 86 87 90 84 84 92 94 92 87 76 70 67 61 57 57 68 69 74 74 75 75 77 81 84 80 81
43 43 45 49 56 58 64 62 66 70 73 78 77 73 79 86 79 78 90 84 78 73 81 94 84 81 74 62 58 58 61 55 56 55 57 67 69 74 80 79 78 76 76
45 49 49 49 49 54 58 62 67 71 71 73 78 79 82 79 84 84 82 81 87 71 73 63 78 84 78 70 69 61 61 55 55 57 58 64 67 73 75 76 64 73 54
47 48 50 52 52 49 51 56 63 66 71 76 78 77 78 79 85 88 89 89 90 96 94 80 85 82 78 80 70 65 69 64 61 67 67 71 73 73 68 58 55 50 56
52 54 54 54 55 55 51 48 55 62 68 71 75 79 86 78 80 90 92 91 94 99 104 97 94 84 83 78 73 73 72 70 68 69 72 69 76 74 55 54 56 56 54
58 59 59 58 57 56 54 53 53 48 58 69 70 74 81 79 91 86 87 97 97 96 104 100 89 91 77 71 71 69 70 71 74 70 73 60 51 48 49 54 55 51 52
69 68 66 64 63 62 61 57 60 64 67 67 65 67 75 76 81 75 85 84 92 94 94 99 89 79 87 73 75 79 69 74 76 79 51 43 46 51 54 53 52 52 48
67 69 70 71 68 67 64 61 62 68 74 77 78 73 70 63 75 76 83 89 82 90 93 99 90 85 83 81 68 71 80 71 72 44 48 51 56 55 54 54 50 45 44
64 68 71 73 75 73 68 69 69 68 71 78 82 82 83 80 74 64 73 78 73 77 89 84 74 73 71 74 77 76 72 66 61 49 51 50 56 50 53 49 47 43 40
69 71 72 74 77 78 77 74 74 74 72 74 80 83 85 82 82 84 78 78 62 72 75 65 65 75 70 68 79 68 58 53 66 70 56 57 60 53 53 48 48 46 42
77 76 76 78 80 81 84 81 70 72 76 76 76 78 82 83 82 80 82 84 84 81 76 74 78 81 80 72 68 75 68 64 69 63 56 57 59 59 55 54 49 44 43
81 82 83 81 82 84 83 80 74 73 78 78 75 74 77 78 78 80 86 87 84 83 81 79 80 78 71 71 62 55 55 61 59 58 56 50 51 58 57 52 47 42 46
82 82 80 79 82 86 81 77 72 75 81 83 78 73 70 72 68 65 68 74 71 68 61 72 73 73 73 59 50 50 53 57 61 60 57 53 56 56 55 51 49 46 47
79 78 79 78 76 81 83 76 69 76 84 84 81 78 68 65 62 59 62 62 69 67 56 62 61 65 57 59 59 50 51 64 70 58 61 63 59 53 41 52 50 47 50
Wind_Direction_850mb
263 264 268 268 264 260 260 260 260 260 261 261 262 264 265 267 270 270 271 271 272 272 269 263 259 264 262 259 263 265 259 252 254 248 247 243 233 226 240 239 243 236 251
268 265 269 271 266 265 266 265 266 267 266 264 263 263 265 264 267 270 270 270 269 271 269 268 258 260 264 266 262 258 260 251 247 253 245 244 240 230 237 238 241 240 243
277 270 270 272 273 273 274 271 270 270 270 266 266 266 266 267 268 270 271 270 270 269 268 264 265 258 255 262 264 265 264 259 250 244 252 243 244 239 240 241 242 245 243
273 277 274 275 276 276 278 277 275 275 274 271 272 271 270 271 271 270 270 270 270 270 269 265 262 262 260 252 256 258 262 266 265 252 244 252 247 244 241 242 245 247 244
271 273 277 278 279 277 276 277 277 275 276 274 275 275 274 273 273 272 271 271 271 271 271 268 261 260 261 261 257 252 255 259 261 263 255 248 250 250 249 245 246 248 245
275 274 282 279 278 276 275 274 275 277 277 278 277 276 274 273 270 270 269 270 269 270 270 269 263 261 262 263 263 260 252 254 256 257 258 256 252 253 253 252 247 245 247
275 274 281 286 282 276 278 278 276 274 274 274 274 276 277 276 274 272 272 272 273 272 271 268 266 264 264 264 264 263 262 253 251 252 253 256 257 257 256 259 256 254 253
279 274 270 261 287 288 283 279 276 272 274 274 271 271 276 283 282 284 279 277 278 275 273 271 269 268 268 267 266 265 264 262 258 250 250 251 255 258 261 266 267 261 251
288 270 276 257 280 286 290 295 292 282 274 275 274 264 258 268 286 290 285 276 278 278 281 278 274 268 269 269 268 264 261 259 259 259 253 252 251 254 260 263 265 266 262
289 287 280 270 264 269 273 284 294 297 293 278 271 271 268 270 270 286 281 280 276 275 276 274 269 275 275 272 271 268 263 260 259 258 259 259 258 258 259 260 264 262 262
288 292 291 286 281 278 276 275 277 273 279 281 276 273 272 272 268 263 275 278 280 282 282 284 275 276 273 271 271 269 269 267 260 259 258 259 260 259 259 261 263 262 262
290 290 291 290 288 287 286 286 285 280 277 274 274 273 269 264 264 263 265 276 280 283 283 283 278 286 287 284 277 275 272 265 257 258 257 257 258 259 259 260 261 261 261
309 297 288 284 286 285 285 286 285 284 279 278 277 277 274 274 273 269 267 267 265 273 281 282 281 283 282 282 282 282 279 277 266 258 256 256 257 256 258 257 257 259 261
319 318 309 298 285 283 286 284 282 283 285 282 279 278 279 275 272 272 269 265 263 264 272 278 282 283 285 283 283 280 277 275 260 266 260 255 253 252 253 255 256 259 265
319 314 311 308 302 291 282 284 285 283 281 282 282 282 277 277 273 270 270 269 263 262 266 265 273 283 284 286 282 279 273 264 264 263 257 255 250 248 253 255 260 260 255
326 323 318 312 306 299 292 283 281 282 283 280 279 278 279 280 277 273 269 268 265 262 261 265 269 277 281 280 278 276 273 268 258 261 255 256 255 251 257 257 258 253 245
330 326 322 320 315 307 299 290 285 283 282 283 281 275 274 280 280 272 266 271 264 262 261 266 270 275 274 275 277 274 270 269 266 264 263 257 258 258 251 255 252 250 246
327 325 324 322 318 314 304 292 286 285 290 286 284 284 281 280 272 275 274 266 261 264 260 263 267 270 274 276 274 275 271 270 267 269 265 264 255 247 246 252 251 249 244
322 321 321 320 319 317 313 306 291 279 275 275 282 286 284 282 278 279 274 277 271 267 253 261 268 264 269 280 279 273 278 272 270 263 250 244 251 251 259 251 247 248 236
318 318 317 317 317 315 313 309 301 291 284 277 275 275 275 285 285 280 276 277 274 273 267 265 265 265 266 267 265 262 277 272 259 240 246 255 255 250 256 250 249 240 233
324 321 319 318 317 315 313 309 304 298 293 287 282 278 273 270 269 279 276 272 273 271 267 254 261 265 263 265 277 277 272 270 250 239 245 248 245 251 245 246 239 229 222
328 324 322 319 316 314 313 309 304 301 296 292 288 284 280 277 267 264 268 270 275 277 280 281 274 269 268 269 280 270 265 265 247 240 244 240 247 245 243 235 226 222 230
332 329 326 323 319 316 315 313 308 302 298 294 292 290 285 280 276 268 264 263 266 268 269 271 277 276 271 277 278 274 276 262 256 242 239 240 244 240 233 226 224 230 235
335 332 329 326 320 318 317 317 316 307 300 296 295 294 292 287 280 277 272 269 266 265 264 265 270 273 276 267 268 269 271 259 244 237 231 238 239 232 226 222 230 234 241
338 334 332 329 324 320 322 323 321 310 303 299 298 297 295 292 290 289 284 271 270 268 271 268 266 266 266 265 258 255 252 238 234 235 235 236 231 222 218 225 231 238 235
343 344 341 340 336 330 329 327 320 308 302 300 297 295 294 294 291 282 278 278 269 269 272 270 272 265 256 261 259 248 256 244 238 238 231 226 221 213 215 225 223 220 219